Regional Weather Roundup
Issued by NWS Newport/Morehead, NC

Current Version | Previous Version | Graphics & Text | Print | Product List | Glossary Off
Versions: 1 2 3 4 5 6 7 8 9 10 11 12 13 14 15 16 17 18 19 20 21 22 23 24 25 26 27 28 29 30 31 32 33 34 35 36 37 38 39 40 41 42 43 44 45 46 47 48 49 50

000
ASUS42 KMHX 251610
RWRMHX
WEATHER ROUNDUP FOR EASTERN NORTH CAROLINA
NATIONAL WEATHER SERVICE NEWPORT/MOREHEAD CITY NC
1100 AM EST SUN JAN 25 2015

NOTE: "FAIR" INDICATES FEW OR NO CLOUDS BELOW 12,000 FEET
WITH NO SIGNIFICANT WEATHER AND/OR OBSTRUCTIONS TO VISIBILITY

NCZ015>017-031-032-045>047-102-103-251700-
NORTH COAST

CITY           SKY/WX    TMP DP  RH WIND       PRES   REMARKS
EDENTON        SUNNY     46  33  59 NW6       29.97S
ELIZABETH CITY SUNNY     46  34  62 W7        29.97R
KITTY HAWK     SUNNY     45  33  62 W3        29.96S
MANTEO         SUNNY     45  34  65 NW6       29.97F

$$

NCZ045>047-081-094-103-104-251700-
CENTRAL COAST

CITY           SKY/WX    TMP DP  RH WIND       PRES   REMARKS
FRISCO         SUNNY     47  33  58 VRB7      29.99R
SWANQUARTER    NOT AVBL

$$

NCZ095-097-098-100-101-251700-
SOUTHERN COAST

CITY           SKY/WX    TMP DP  RH WIND       PRES   REMARKS
BEAUFORT       MOSUNNY   49  34  56 N6        29.97F
CEDAR ISLAND   NOT AVBL
JACKSONVILLE   SUNNY     48  32  53 NW5       29.97F
PINEY ISLAND     N/A    N/A N/A N/A MISG      29.98F
WILMINGTON     MOSUNNY   47  34  60 CALM      29.99F


$$

NCZ011>013-027>030-043-044-078>080-089-090>093-098-251700-
COASTAL PLAIN

CITY           SKY/WX    TMP DP  RH WIND       PRES   REMARKS
AHOSKIE        SUNNY     46  33  61 CALM      29.96S
CLINTON        SUNNY     49  35  57 CALM      29.98S
ELIZABETHTOWN  SUNNY     49  35  58 CALM      29.99R
GOLDSBORO      SUNNY     47  39  73 CALM      29.95F
GREENVILLE     SUNNY     46  32  57 CALM      29.98F
HAVELOCK       SUNNY     49  31  49 VRB6      29.99F
KENANSVILLE    SUNNY     48  32  54 CALM      29.98F
KINSTON        SUNNY     48  32  53 NW3       29.98F
NEW BERN       SUNNY     49  32  52 VRB5      29.99F
RICHLANDS      SUNNY     48  30  49 N8        29.98F
ROCKY MOUNT    SUNNY     48  29  47 CALM      29.96F
WASHINGTON     SUNNY     46  33  59 W3        29.98F
WHITEVILLE     SUNNY     46  34  64 S3        30.00R

$$

AMZ130-135-150-152-154-156-158-170-250-252-270-ANZ085-086-088-633-658-670-251700-
MARINE OBSERVATIONS

STATION/POSITION TIME  TEMP    WIND        PRES    WAVE   SWELL
                       AIR SEA DIR/SP/G            HT/PER HT/PER
                 (UTC) (F)     (DEG/KT/KT) (MB)    (FT/S) (FT/S)
CHESAPEAKE LIGHT 1500   41     250/ 11/ 13 1014.0
64 E VA BEACH    1600   46 53  300/ 10/ 12 1013.5    5/ 5   3/ 5
DUCK             1600   43 43  240/  5/  6 1013.9
2 E DUCK         1600      44                N/A     2/11   2/11
10 NE DUCK       1600      45                N/A     3/11   2/11
OREGON INLET     1600   45 47  270/  5/  7 1014.9
13E OREGON INLT  1600      46                N/A     5/ 8   2/11
HATTERAS CG      1600   45 53  320/  9/ 12 1015.7
DIAMOND BUOY     1600   47 69  320/ 10/ 14 1015.6    6/10   5/10
17 S OCRACOKE    NOT AVBL
CAPE LOOKOUT     1500   45     300/  8/  9 1016.0
BEAUFORT LAB     1600   45 49  360/  7/  7 1014.4
27 SE WRIGHTSVLE NOT AVBL
5 SE WRIGHTSVLE  1500   48 51  280/  2/  2 1015.9
225 S CAPE HAT   1515   64 72  270/ 12/ 16 1015.7    9/ 8   8/ 8
41 SE CHARLESTON 1600   52 69  330/  6/  8 1016.0    4/ 6   3/ 6

$$



USA.gov is the U.S. government's official web portal to all federal, state and local government web resources and services.